Location: Unspecified
(0.0000°N, 0.0000°E)
Time: 06:06:57
(UTC+00:00)

Tiros 1 - Pass Details

Date: 09 October 2020
Orbit: 630 x 663 km, 48.4° (Epoch: 28 October)

Event Time Altitude Azimuth Distance (km) Brightness Sun altitude
Rises 19:49:54 0° 306° (NW) 2,978 11.2 -30.5°
Reaches altitude 10° 19:52:23 10° 298° (WNW) 2,070 10.3 -31.1°
Enters shadow 19:56:12 35° 247° (WSW) 1,070 8.6 -32.0°
Maximum altitude 19:56:46 36° 231° (SW) 1,044 - -32.2°
Drops below altitude 10° 20:01:10 10° 164° (SSE) 2,075 - -33.3°
Sets 20:03:40 0° 156° (SSE) 2,986 - -33.9°
